Meteo Giornale » Osservazioni meteo Stati Uniti (USA) » Weatherford
ore: 05:30 - Osservazioni Meteo Weatherford
Lat. 35° 33' N Lon. 98° 40' W Alt. 490 metri s.l.m.
25 °C
Sereno
Temp. 24 Ore
25 °C
38 °C
Nord
0 Km/h
Dew point 14 °C
Umidità 50 %
Visibilità 10 Km
Il sole sorge alle ore 07:07
Il sole tramonta alle ore 20:02
| Data e Ora | Cielo e Fenomeni | T °C | DP °C | Um. % | Pres. hPa | Vis. km | Vento km/h | |
|---|---|---|---|---|---|---|---|---|
| Oggi h: 05:30 | Sereno | 25 | 14 | 50 | 1017 | 10 | N 0 | |
| Oggi h: 05:10 | Sereno | 25 | 14 | 50 | 1017 | 10 | S 7.4 | |
| Oggi h: 04:50 | Sereno | 26 | 14 | 47 | 1017 | 10 | S 7.4 | |
| Oggi h: 04:30 | Sereno | 26 | 14 | 47 | 1017 | 10 | S 7.4 | |
| Oggi h: 04:10 | Sereno | 26 | 14 | 47 | 1017 | 10 | S 9.3 | |
| Oggi h: 03:50 | Sereno | 27 | 14 | 44 | 1016 | 10 | S 9.3 | |
| Oggi h: 03:30 | Sereno | 28 | 14 | 42 | 1016 | 10 | S 9.3 | |
| Oggi h: 03:10 | Sereno | 28 | 14 | 42 | 1016 | 10 | S 13 | |
| Oggi h: 02:50 | Sereno | 28 | 14 | 42 | 1016 | 10 | S 14.8 | |
| Oggi h: 02:30 | Sereno | 28 | 14 | 42 | 1016 | 10 | S 13 | |
| Oggi h: 02:10 | Sereno | 28 | 14 | 42 | 1017 | 10 | S 13 | |
| Oggi h: 01:50 | Sereno | 28 | 14 | 42 | 1017 | 10 | S 16.7 | |
| Oggi h: 01:30 | Sereno | 27 | 14 | 44 | 1017 | 10 | S 16.7 | |
| Oggi h: 01:10 | Sereno | 27 | 13 | 42 | 1017 | 10 | S 13 | |
| Oggi h: 00:50 | Sereno | 28 | 13 | 39 | 1017 | 10 | S 14.8 | |
| Oggi h: 00:30 | Sereno | 28 | 13 | 39 | 1017 | 10 | S 13 | |
| Oggi h: 00:10 | Sereno | 28 | 13 | 39 | 1016 | 10 | S 14.8 | |
| Ieri h: 23:50 | Sereno | 28 | 13 | 39 | 1016 | 10 | S 14.8 | |
| Ieri h: 23:30 | Sereno | 29 | 13 | 37 | 1016 | 10 | S 18.5 | |
| Ieri h: 23:10 | Sereno | 29 | 12 | 35 | 1016 | 10 | S/SE 18.5 | |
| Ieri h: 22:50 | Sereno | 29 | 12 | 35 | 1016 | 10 | S/SE 16.7 | |
| Ieri h: 22:30 | Sereno | 29 | 13 | 37 | 1016 | 10 | S/SE 14.8 | |
| Ieri h: 22:10 | Sereno | 30 | 13 | 35 | 1015 | 10 | S 16.7 | |
| Ieri h: 21:50 | Sereno | 30 | 13 | 35 | 1015 | 10 | S 16.7 | |
| Ieri h: 21:30 | Sereno | 31 | 13 | 33 | 1015 | 10 | S 16.7 | |
| Ieri h: 21:10 | Sereno | 31 | 13 | 33 | 1014 | 10 | S/SE 16.7 | |
| Ieri h: 20:50 | Sereno | 32 | 13 | 31 | 1014 | 10 | S/SE 18.5 | |
| Ieri h: 20:30 | Sereno | 32 | 13 | 31 | 1014 | 10 | S/SE 18.5 | |
| Ieri h: 20:10 | Sereno | 33 | 13 | 29 | 1014 | 10 | S/SE 18.5 | |
| Ieri h: 19:50 | Sereno | 34 | 13 | 28 | 1014 | 10 | S/SE 16.7 | |
| Ieri h: 19:30 | Sereno | 35 | 13 | 26 | 1014 | 10 | S/SE 22.2 | |
| Ieri h: 19:10 | Sereno | 35 | 13 | 26 | 1014 | 10 | S/SE 22.2 | |
| Ieri h: 18:50 | Sereno | 36 | 13 | 25 | 1014 | 10 | S/SE 27.8 | |
| Ieri h: 18:30 | Sereno | 36 | 14 | 26 | 1014 | 10 | S/SE 25.9 | |
| Ieri h: 18:10 | Sereno | 37 | 14 | 25 | 1014 | 10 | S 29.6 | |
| Ieri h: 17:50 | Sereno | 37 | 14 | 25 | 1014 | 10 | S 29.6 | |
| Ieri h: 17:30 | Nuvoloso | 37 | 14 | 25 | 1014 | 10 | S 27.8 | |
| Ieri h: 17:10 | Nuvoloso | 38 | 15 | 25 | 1014 | 10 | S/SE 24 | |
| Ieri h: 16:50 | Sereno | 38 | 15 | 25 | 1014 | 10 | S/SE 27.8 | |
| Ieri h: 16:30 | Nuvoloso | 37 | 15 | 27 | 1014 | 10 | S 24 | |
| Ieri h: 16:10 | Nuvoloso | 38 | 15 | 25 | 1014 | 10 | S/SE 25.9 | |
| Ieri h: 15:50 | Nuvoloso | 37 | 14 | 25 | 1014 | 10 | S 18.5 | |
| Ieri h: 15:30 | Nuvoloso | 38 | 14 | 24 | 1015 | 10 | S 24 | |
| Ieri h: 15:10 | Nuvoloso | 37 | 15 | 27 | 1015 | 10 | S 22.2 | |
| Ieri h: 14:50 | Nuvoloso | 38 | 15 | 25 | 1015 | 10 | S 22.2 | |
| Ieri h: 14:30 | Sereno | 38 | 15 | 25 | 1015 | 10 | S 20.3 | |
| Ieri h: 14:10 | Sereno | 38 | 15 | 25 | 1015 | 10 | SO 16.7 | |
| Ieri h: 13:50 | Nuvoloso | 37 | 15 | 27 | 1016 | 10 | S 22.2 | |
| Ieri h: 13:30 | Sereno | 36 | 15 | 28 | 1016 | 10 | O/SO 22.2 | |
| Ieri h: 13:10 | Sereno | 37 | 15 | 27 | 1016 | 10 | S/SO 20.3 | |
| Ieri h: 12:50 | Sereno | 36 | 15 | 28 | 1016 | 10 | S/SO 16.7 | |
| Ieri h: 12:30 | Sereno | 36 | 16 | 30 | 1016 | 10 | O/SO 20.3 | |
| Ieri h: 12:10 | Sereno | 36 | 16 | 30 | 1016 | 10 | SO 20.3 | |
| Ieri h: 11:50 | Sereno | 36 | 16 | 30 | 1017 | 10 | SO 24 | |
| Ieri h: 11:35 | Sereno | 35 | 16 | 32 | 1017 | 10 | S/SO 25.9 | |
| Ieri h: 11:10 | Sereno | 35 | 16 | 32 | 1017 | 10 | S/SO 22.2 | |
| Ieri h: 10:50 | Sereno | 34 | 17 | 36 | 1017 | 10 | S/SO 22.2 | |
| Ieri h: 10:30 | Sereno | 33 | 17 | 38 | 1017 | 10 | S/SO 25.9 | |
| Ieri h: 10:10 | Sereno | 32 | 17 | 40 | 1017 | 10 | S/SO 29.6 | |
| Ieri h: 09:50 | Sereno | 31 | 17 | 43 | 1017 | 10 | S/SO 24 | |
| Ieri h: 09:30 | Sereno | 30 | 16 | 42 | 1017 | 10 | S/SO 18.5 | |
| Ieri h: 09:10 | Sereno | 30 | 16 | 42 | 1017 | 10 | S/SO 20.3 | |
| Ieri h: 08:50 | Sereno | 29 | 16 | 45 | 1017 | 10 | S/SO 18.5 | |
| Ieri h: 08:30 | Sereno | 27 | 16 | 50 | 1017 | 10 | S 9.3 | |
| Ieri h: 08:10 | Sereno | 26 | 15 | 50 | 1017 | 10 | SE 9.3 | |
| Ieri h: 07:50 | Sereno | 25 | 15 | 53 | 1016 | 10 | SE 9.3 | |
| Ieri h: 07:30 | Sereno | 26 | 15 | 50 | 1016 | 10 | S 9.3 | |
| Ieri h: 07:10 | Sereno | 26 | 15 | 50 | 1016 | 10 | S 9.3 | |
| Ieri h: 06:50 | Sereno | 26 | 15 | 50 | 1016 | 10 | S/SO 13 | |
| Ieri h: 06:30 | Sereno | 27 | 15 | 47 | 1015 | 10 | S/SO 13 | |
| Ieri h: 06:10 | Sereno | 27 | 15 | 47 | 1015 | 10 | S/SO 13 | |
| Ieri h: 05:50 | Sereno | 27 | 15 | 47 | 1015 | 10 | S/SO 13 | |



